Erie, PA

6:52 PM EST on February 19, 2017 (GMT -0500)
Erie International

Weather History for KERI - March, 2014

Change the Weather History Date:

Saturday, March 8, 2014

  Actual Average Record
Temperature  
Mean Temperature 31 °F 33 °F  
Max Temperature 39 °F 41 °F 72 °F (2000)
Min Temperature 22 °F 25 °F 0 °F (1999)
Degree Days  
Heating Degree Days 34 32  
Month to date heating degree days 367 266  
Since 1 July heating degree days 5188 4631  
Cooling Degree Days 0 0  
Month to date cooling degree days 0 0  
Year to date cooling degree days 0 0  
Moisture  
Dew Point 27 °F    
Average Humidity 76    
Maximum Humidity 92    
Minimum Humidity 59    
Precipitation  
Precipitation 0.10 in 0.09 in 1.45 in (2009)
Month to date precipitation 0.42 0.73  
Year to date precipitation 6.41 6.07  
Snow  
Snow 1.00 in 0.50 in - ()
Month to date snowfall 4.3 4.4  
Since 1 July snowfall 124.9 88.4  
Snow Depth 0.00 in    
Sea Level Pressure  
Sea Level Pressure 30.01 in    
Wind  
Wind Speed 7 mph (West)    
Max Wind Speed 18 mph    
Max Gust Speed 26 mph    
Visibility 4 miles    
Events Fog , Snow    
T = Trace of Precipitation, MM = Missing Value Source: NWS Daily Summary

Daily Weather History Graph

Daily Weather History Graph

Search for Another Location

Airport or City:

Trip Planner

Search our weather history database for the weather conditions in past years. The results will help you decide how hot, cold, wet, or windy it might be!

Date:

Astronomy

Mar. 08, 2014 Rise Set
Actual Time 6:44 AM EST 6:19 PM EST
Civil Twilight 6:16 AM EST 6:47 PM EST
Nautical Twilight 5:44 AM EST 7:19 PM EST
Astronomical Twilight 5:11 AM EST 7:52 PM EST
Moon 11:17 AM EST (3/8) 1:22 AM EST (3/8)
Length of Visible Light 12h 30m
Length of Day
11h 34m
First Quarter, 51% of the Moon is Illuminated
Mar 8
First Quarter
Mar 16
Full
Mar 23
Last Quarter
Mar 30
New
Apr 7
First Quarter

Hourly Weather History & Observations

Time (EST) Temp. Windchill Dew Point Humidity Pressure Visibility Wind Dir Wind Speed Gust Speed Precip Events Conditions
12:51 AM 30.0 °F 26.5 °F 25.0 °F 82% 29.92 in 9.0 mi SSW 3.5 mph - N/A   Clear
1:51 AM 37.9 °F 33.5 °F 28.0 °F 68% 29.91 in 10.0 mi SW 5.8 mph - N/A   Clear
2:51 AM 36.0 °F 30.3 °F 27.0 °F 70% 29.90 in 10.0 mi SW 6.9 mph - N/A   Clear
3:51 AM 35.1 °F 29.3 °F 27.0 °F 72% 29.91 in 10.0 mi SW 6.9 mph - N/A   Clear
4:51 AM 37.9 °F 33.5 °F 27.0 °F 65% 29.91 in 10.0 mi SW 5.8 mph - N/A   Overcast
5:51 AM 39.0 °F 33.4 °F 26.1 °F 60% 29.94 in 10.0 mi WSW 8.1 mph - N/A   Overcast
6:32 AM 33.8 °F 25.3 °F 28.4 °F 81% 29.94 in 4.0 mi West 11.5 mph - 0.00 in Snow Light Snow
6:36 AM 33.8 °F 26.4 °F 28.4 °F 81% 29.94 in 2.5 mi West 9.2 mph - 0.00 in Snow Light Snow
6:51 AM 34.0 °F 27.2 °F 30.0 °F 85% 29.97 in 2.0 mi West 8.1 mph - 0.00 in Snow Light Snow
7:15 AM 33.8 °F 28.6 °F 30.2 °F 87% 29.95 in 1.2 mi West 5.8 mph - 0.01 in Snow Light Snow
7:27 AM 33.8 °F 28.6 °F 30.2 °F 87% 29.96 in 0.8 mi WSW 5.8 mph - 0.02 in Snow Light Snow
7:36 AM 33.8 °F 30.8 °F 30.2 °F 87% 29.96 in 0.8 mi West 3.5 mph - 0.03 in Snow Light Snow
7:51 AM 33.1 °F 28.7 °F 30.9 °F 92% 29.98 in 0.8 mi WSW 4.6 mph - 0.04 in Snow Light Snow
8:51 AM 33.1 °F 28.7 °F 30.9 °F 92% 29.99 in 0.8 mi WSW 4.6 mph - 0.01 in   Overcast
9:51 AM 33.1 °F 26.1 °F 30.0 °F 89% 30.01 in 0.5 mi West 8.1 mph - 0.00 in Fog Fog
10:30 AM 32.0 °F 24.2 °F 30.2 °F 93% 29.99 in 0.8 mi West 9.2 mph - 0.00 in Snow Light Snow
10:49 AM 30.2 °F 22.6 °F 28.4 °F 93% 30.00 in 0.8 mi West 8.1 mph - 0.00 in Snow Light Snow
10:51 AM 30.9 °F 24.3 °F 28.9 °F 92% 30.02 in 0.8 mi West 6.9 mph - 0.00 in Snow Light Snow
10:59 AM 30.2 °F 22.6 °F 28.4 °F 93% 30.00 in 1.0 mi West 8.1 mph - 0.00 in Snow Light Snow
11:51 AM 30.9 °F 24.3 °F 28.0 °F 89% 30.04 in 1.0 mi West 6.9 mph - 0.01 in Snow Light Snow
12:51 PM 30.0 °F 22.4 °F 28.0 °F 92% 30.05 in 1.0 mi West 8.1 mph - 0.00 in Snow Light Snow
1:00 PM 30.2 °F 24.3 °F 28.4 °F 93% 30.02 in 1.0 mi West 5.8 mph - 0.00 in Snow Light Snow
1:24 PM 30.2 °F 22.6 °F 26.6 °F 86% 30.01 in 0.8 mi West 8.1 mph - 0.01 in Snow Light Snow
1:35 PM 30.2 °F 21.9 °F 28.4 °F 93% 30.01 in 1.0 mi West 9.2 mph - 0.01 in Snow Light Snow
1:43 PM 30.2 °F 23.4 °F 28.4 °F 93% 30.01 in 0.8 mi West 6.9 mph - 0.01 in Snow Light Snow
1:51 PM 30.0 °F 23.2 °F 28.0 °F 92% 30.03 in 0.8 mi West 6.9 mph - 0.01 in Snow Light Snow
2:10 PM 30.2 °F 22.6 °F 28.4 °F 93% 30.00 in 1.2 mi West 8.1 mph - 0.00 in Snow Light Snow
2:35 PM 30.2 °F 22.6 °F 28.4 °F 93% 30.00 in 2.0 mi West 8.1 mph - 0.01 in   Overcast
2:51 PM 30.9 °F 25.2 °F 28.0 °F 89% 30.03 in 2.0 mi West 5.8 mph - 0.01 in   Overcast
3:25 PM 30.2 °F 24.3 °F 28.4 °F 93% 30.00 in 3.0 mi West 5.8 mph - N/A   Overcast
3:38 PM 30.2 °F 23.4 °F 26.6 °F 86% 30.00 in 1.8 mi West 6.9 mph - 0.00 in Snow Light Snow
3:51 PM 30.9 °F 23.5 °F 27.0 °F 85% 30.03 in 1.2 mi West 8.1 mph - 0.00 in Snow Light Snow
4:15 PM 30.2 °F 23.4 °F 28.4 °F 93% 30.02 in 2.0 mi West 6.9 mph - 0.00 in   Overcast
4:29 PM 30.2 °F 23.4 °F 26.6 °F 86% 30.02 in 4.0 mi West 6.9 mph - 0.00 in   Haze
4:51 PM 30.0 °F 21.7 °F 25.0 °F 82% 30.06 in 6.0 mi West 9.2 mph - 0.00 in   Haze
5:51 PM 28.9 °F 21.1 °F 23.0 °F 78% 30.08 in 7.0 mi West 8.1 mph - N/A   Overcast
6:51 PM 28.0 °F 20.8 °F 21.9 °F 78% 30.09 in 9.0 mi West 6.9 mph - N/A   Overcast
7:51 PM 27.0 °F 19.5 °F 21.9 °F 81% 30.10 in 9.0 mi West 6.9 mph - N/A   Overcast
8:51 PM 25.0 °F 16.3 °F 19.9 °F 81% 30.11 in 10.0 mi WNW 8.1 mph - N/A   Overcast
9:51 PM 24.1 °F 17.0 °F 19.0 °F 81% 30.13 in 10.0 mi West 5.8 mph - N/A   Overcast
10:51 PM 23.0 °F 13.9 °F 18.0 °F 81% 30.14 in 10.0 mi West 8.1 mph - N/A   Overcast
11:51 PM 21.9 °F 12.5 °F 17.1 °F 82% 30.14 in 10.0 mi West 8.1 mph - N/A   Overcast